Current weather by "City, St" or "zip code"  
 

Current Conditions: Brookhaven-Lincoln County Airport, MS

Fog/Mist


57.0 F

Last Updated on Oct 24 2020, 11:55 am CDT
Humidity: 100%
Wind Speed: N 8.1 mph
Barometer 30.05 in
Dewpoint: 57.2 F
Visibility: 6.00 mi
Precip: --
Heat Index: NA
Wind Chill: 55 F
Current conditions at:

Brookhaven-Lincoln County Airport, MS (K1R7)

Lat: 31.6058 Lon: 90.4093

Local Radar Image active severe weather and emergency alerts image image weather storm and storm spotter reports image weather observation monitoring service image
Local
Radar
Active
Alerts
Storm Reports Obs
Monitoring

Sign-up For Email & Text Message Weather Alert Notification Services



Advertise Here

Observation History for Brookhaven-Lincoln County Airport, MS


Time Wind
(mph)
Vis
(mi)
Weather Precip (in) Temperature (F) Relative
Humidity
Wind
Chill
(F)
Heat
Index
(F)
Pressure
Air Dwpt altimeter
(in)
sea level
(mb)
Rmks
11:55 am CDT N 8.1 6.00 Fog/Mist -- 57.0 57.2 100% 55 NA 30.05 M
10:55 am CDT NW 8.1 1.50 Fog/Mist -- 59.0 57.2 94% 58 NA 30.06 M
9:55 am CDT NW 6.9 1.00 Fog/Mist -- 59.0 59.0 100% 58 NA 30.06 M
8:55 am CDT 6.9 0.25 Fog -- 59.0 57.2 94% 58 NA 30.06 M
7:55 am CDT NW 5.8 1.25 Fog/Mist -- 59.0 59.0 100% 58 NA 30.04 M
6:55 am CDT NW 9.2 0.25 Fog -- 63.0 60.8 94% 62 NA 30.02 M
5:55 am CDT N 9.2 3.00 Fog/Mist -- 66.0 66.2 100% NA NA 30.00 M
4:55 am CDT N 0.0 10.00 Overcast -- 68.0 68.0 100% NA NA 29.99 M
3:55 am CDT N 0.0 10.00 Overcast -- 68.0 66.2 94% NA NA 29.99 M
2:55 am CDT W 4.6 10.00 Overcast -- 68.0 68.0 100% NA NA 29.99 M
1:55 am CDT N 0.0 10.00 Overcast -- 70.0 68.0 94% NA NA 30.01 M
12:55 am CDT N 0.0 10.00 Overcast -- 70.0 68.0 94% NA NA 30.01 M
11:55 pm CDT N 0.0 10.00 Overcast -- 70.0 69.8 100% NA NA 30.03 M
10:55 pm CDT N 0.0 10.00 Overcast -- 70.0 68.0 94% NA NA 30.03 M
9:55 pm CDT S 4.6 7.00 Overcast -- 70.0 69.8 100% NA NA 30.03 M
8:55 pm CDT N 0.0 7.00 Overcast -- 70.0 68.0 94% NA NA 30.03 M
7:55 pm CDT N 0.0 10.00 Overcast -- 70.0 68.0 94% NA NA 30.01 M
6:55 pm CDT 3.5 10.00 Overcast -- 73.0 68.0 83% NA NA 30.00 M
5:55 pm CDT N 0.0 10.00 Mostly Cloudy -- 77.0 71.6 83% NA NA 29.97 M
4:55 pm CDT N 0.0 10.00 A Few Clouds -- 82.0 69.8 66% NA 86 29.96 M
3:55 pm CDT N 0.0 10.00 Fair -- 84.0 69.8 62% NA 88 29.95 M
2:55 pm CDT N 0.0 10.00 A Few Clouds -- 86.0 69.8 59% NA 91 29.96 M
1:55 pm CDT N 0.0 10.00 Partly Cloudy -- 82.0 69.8 66% NA 86 29.99 M
12:55 pm CDT 4.6 G 11.5 10.00 Mostly Cloudy -- 82.0 69.8 66% NA 86 30.04 M

Regional Weather Observation


McComb, McComb / Pike County / John E Lewis Field Airport, MS (KMCB)

Overcast
64.0 F

JB Williams Airport, MS (KJVW)

Overcast
55.0 F

Jackson, Hawkins Field Airport, MS (KHKS)

Fog/Mist
56.0 F

Jackson, Jackson International Airport, MS (KJAN)

Fog/Mist
57.0 F

Natchez, Hardy-Anders Field Natchez-Adams County Airport, MS (KHEZ)

Overcast
55.0 F

Vicksburg, Vicksburg / Tallulah Regional Airport, LA (KTVR)

Overcast
57.0 F